Date String (YYYY-MM-DD hh:mm:ss) UTC,Instrument flags,Ambient pressure (hPa),Sample flow (lpm),Bypass flow (lpm),Sample temperature (°C),Ambient temperature (°C),ASC tube jacket temperature (°C),LED temperature (°C),Box temperature (°C),Sample RH (%),Span deviation,Mass concentration (μg/m³),Mass concentration (μg/m³),Mass concentration (μg/m³)
DateTimeUTC,F1_M11,P_M11,Q1_M11,Q2_M11,T1_M11,T2_M11,T3_M11,T4_M11,T5_M11,U1_M11,ZSPAN_M11,X0_M11,X2_M11,X1_M11
2021-09-06 05:00:00,,0831.0,4.99,0.00,29.4,28.3,00.0,38.5,31.2,10.9,0001.8,0016.08,0010.63,0010.09
2021-09-06 05:01:00,,0831.0,5.00,0.00,29.5,28.4,00.0,38.5,31.3,10.9,0001.5,0016.00,0010.61,0010.07
2021-09-06 05:02:00,,0831.0,4.99,0.00,29.5,28.4,00.0,38.5,31.3,10.8,0002.1,0015.88,0010.61,0010.07
2021-09-06 05:03:00,,0831.0,5.02,0.00,29.5,28.5,00.0,38.5,31.3,10.8,0002.1,0015.72,0010.59,0010.05
2021-09-06 05:04:00,,0831.0,4.99,0.00,29.6,28.6,00.0,38.6,31.4,10.8,0002.1,0015.87,0010.58,0010.05
2021-09-06 05:05:00,,0831.0,5.01,0.00,29.6,28.6,00.0,38.6,31.4,10.7,0002.2,0015.95,0010.62,0010.05
2021-09-06 05:06:00,,0831.0,5.00,0.00,29.6,28.7,00.0,38.6,31.4,10.7,0002.7,0016.00,0010.65,0010.05
2021-09-06 05:07:00,,0831.1,5.00,0.00,29.7,28.7,00.0,38.6,31.4,10.7,0002.6,0016.81,0010.72,0010.05
2021-09-06 05:08:00,,0831.0,5.01,0.00,29.7,28.7,00.0,38.6,31.5,10.6,0001.7,0016.57,0010.68,0010.04
2021-09-06 05:09:00,,0831.0,4.99,0.00,29.7,28.8,00.0,38.7,31.5,10.6,0001.8,0016.25,0010.69,0010.05
2021-09-06 05:10:00,,0831.0,5.01,0.00,29.7,28.8,00.0,38.7,31.5,10.6,0001.9,0016.68,0010.72,0010.04
2021-09-06 05:11:00,,0831.0,5.00,0.00,29.8,28.8,00.0,38.7,31.6,10.5,0002.3,0016.79,0010.76,0010.05
2021-09-06 05:12:00,,0831.0,5.00,0.00,29.8,28.9,00.0,38.7,31.6,10.5,0002.5,0017.32,0010.78,0010.04
2021-09-06 05:13:00,,0831.0,5.00,0.00,29.8,28.9,00.0,38.8,31.6,10.5,0002.2,0018.11,0010.83,0010.07
2021-09-06 05:14:00,,0831.0,4.99,0.00,29.9,28.9,00.0,38.8,31.6,10.5,0002.2,0018.22,0010.84,0010.08
2021-09-06 05:15:00,,0831.1,5.01,0.00,29.9,28.9,00.0,38.8,31.6,10.4,0002.4,0018.06,0010.87,0010.11
2021-09-06 05:16:00,,0831.0,5.00,0.00,29.8,27.2,00.0,38.8,31.2,10.5,0002.2,0018.01,0010.86,0010.12
2021-09-06 05:17:00,,0831.0,5.01,0.00,29.6,26.1,00.0,38.8,30.9,10.5,0002.2,0017.92,0010.85,0010.11
2021-09-06 05:18:00,,0831.0,4.99,0.00,29.6,26.3,00.0,38.7,31.0,10.7,0001.9,0017.28,0010.84,0010.12
2021-09-06 05:19:00,,0830.9,5.00,0.00,29.5,26.7,00.0,38.7,31.0,10.7,0002.5,0017.64,0010.89,0010.13
2021-09-06 05:20:00,,0831.0,4.99,0.00,29.5,27.1,00.0,38.7,31.0,10.7,0002.1,0017.67,0010.92,0010.14
2021-09-06 05:21:00,,0830.9,5.00,0.00,29.5,27.4,00.0,38.7,31.0,10.7,0002.5,0017.21,0010.90,0010.15
2021-09-06 05:22:00,,0830.9,5.00,0.00,29.5,27.7,00.0,38.6,31.1,10.7,0002.4,0017.36,0010.89,0010.14
2021-09-06 05:23:00,,0831.0,5.01,0.00,29.5,27.9,00.0,38.6,31.2,10.8,0002.2,0017.09,0010.86,0010.12
2021-09-06 05:24:00,,0830.9,4.98,0.00,29.5,28.1,00.0,38.6,31.2,10.7,0002.2,0016.90,0010.85,0010.10
2021-09-06 05:25:00,,0830.9,5.00,0.00,29.5,28.2,00.0,38.6,31.3,10.7,0002.2,0017.04,0010.89,0010.09
2021-09-06 05:26:00,,0830.9,5.00,0.00,29.6,28.3,00.0,38.6,31.3,10.7,0002.6,0017.11,0010.91,0010.08
2021-09-06 05:27:00,,0830.9,4.99,0.00,29.6,28.4,00.0,38.7,31.3,10.7,0003.1,0017.14,0010.89,0010.08
2021-09-06 05:28:00,,0830.9,5.00,0.00,29.6,28.5,00.0,38.7,31.4,10.6,0003.2,0017.18,0010.88,0010.07
2021-09-06 05:29:00,,0830.9,5.01,0.00,29.6,28.5,00.0,38.7,31.4,10.6,0003.5,0017.12,0010.87,0010.08
2021-09-06 05:30:00,,0830.9,5.00,0.00,29.7,28.6,00.0,38.7,31.4,10.6,0003.5,0017.01,0010.86,0010.10
2021-09-06 05:31:00,,0830.9,4.99,0.00,29.7,28.7,00.0,38.7,31.4,10.6,0004.0,0016.17,0010.83,0010.11
2021-09-06 05:32:00,,0830.9,5.00,0.00,29.7,28.7,00.0,38.7,31.5,10.6,0004.3,0016.25,0010.82,0010.11
2021-09-06 05:33:00,,0830.9,5.01,0.00,29.8,28.7,00.0,38.7,31.5,10.5,0004.1,0016.02,0010.79,0010.11
2021-09-06 05:34:00,,0830.9,5.00,0.00,29.8,28.8,00.0,38.8,31.5,10.5,0004.2,0016.01,0010.77,0010.12
2021-09-06 05:35:00,,0830.9,5.00,0.00,29.8,28.8,00.0,38.8,31.6,10.4,0004.4,0015.91,0010.74,0010.09
2021-09-06 05:36:00,,0830.9,5.00,0.00,29.8,28.8,00.0,38.8,31.6,10.4,0004.1,0015.50,0010.69,0010.08
2021-09-06 05:37:00,,0830.9,5.00,0.00,29.9,28.9,00.0,38.8,31.6,10.4,0003.8,0015.68,0010.67,0010.06
2021-09-06 05:38:00,,0830.9,4.99,0.00,29.9,28.9,00.0,38.8,31.7,10.3,0004.0,0015.79,0010.70,0010.07
2021-09-06 05:39:00,,0830.9,4.99,0.00,29.9,28.9,00.0,38.9,31.7,10.4,0004.0,0015.77,0010.70,0010.09
2021-09-06 05:40:00,,0830.9,5.01,0.00,29.9,29.0,00.0,38.9,31.7,10.4,0004.1,0015.70,0010.69,0010.09
2021-09-06 05:41:00,,0830.8,5.01,0.00,29.9,28.5,00.0,38.9,31.6,10.3,0003.7,0015.56,0010.66,0010.08
2021-09-06 05:42:00,,0830.8,5.01,0.00,29.8,26.5,00.0,38.9,31.1,10.3,0003.8,0015.61,0010.67,0010.07
2021-09-06 05:43:00,,0830.7,5.00,0.00,29.7,26.1,00.0,38.9,31.0,10.4,0003.4,0015.60,0010.69,0010.07
2021-09-06 05:44:00,,0830.7,4.99,0.00,29.6,26.4,00.0,38.8,31.0,10.4,0003.7,0015.70,0010.72,0010.07
2021-09-06 05:45:00,,0830.7,5.00,0.00,29.5,26.8,00.0,38.8,31.0,10.4,0003.7,0015.91,0010.75,0010.09
2021-09-06 05:46:00,,0830.8,4.99,0.00,29.5,27.2,00.0,38.7,31.1,10.4,0003.6,0016.13,0010.74,0010.10
2021-09-06 05:47:00,,0830.8,5.00,0.00,29.5,27.5,00.0,38.7,31.2,10.5,0003.8,0016.20,0010.74,0010.11
2021-09-06 05:48:00,,0830.8,5.00,0.00,29.5,27.8,00.0,38.7,31.2,10.5,0004.0,0016.13,0010.77,0010.13
2021-09-06 05:49:00,,0830.8,5.01,0.00,29.6,28.0,00.0,38.7,31.3,10.5,0003.5,0016.04,0010.78,0010.15
2021-09-06 05:50:00,,0830.7,5.00,0.00,29.6,28.2,00.0,38.7,31.3,10.5,0002.9,0015.94,0010.77,0010.13
2021-09-06 05:51:00,,0830.8,4.99,0.00,29.6,28.3,00.0,38.7,31.3,10.4,0002.5,0016.05,0010.75,0010.11
2021-09-06 05:52:00,,0830.7,4.99,0.00,29.6,28.4,00.0,38.7,31.3,10.5,0002.6,0016.39,0010.76,0010.10
2021-09-06 05:53:00,,0830.8,4.99,0.00,29.7,28.5,00.0,38.7,31.4,10.4,0002.6,0016.33,0010.77,0010.10
2021-09-06 05:54:00,,0830.8,5.00,0.00,29.7,28.5,00.0,38.7,31.4,10.3,0002.6,0016.24,0010.74,0010.09
2021-09-06 05:55:00,,0830.8,5.00,0.00,29.7,28.6,00.0,38.7,31.4,10.4,0002.7,0016.16,0010.69,0010.07
2021-09-06 05:56:00,,0830.7,4.99,0.00,29.7,28.6,00.0,38.8,31.5,10.4,0002.8,0015.89,0010.66,0010.05
2021-09-06 05:57:00,,0830.7,5.00,0.00,29.8,28.7,00.0,38.8,31.5,10.3,0002.7,0015.37,0010.69,0010.06
2021-09-06 05:58:00,,0830.7,4.99,0.00,29.8,28.7,00.0,38.8,31.5,10.2,0002.3,0015.48,0010.69,0010.08
2021-09-06 05:59:00,,0830.7,4.98,0.00,29.8,28.8,00.0,38.8,31.6,10.3,0002.2,0015.39,0010.64,0010.05
